Location: Fredericksburg
(30.2750°N, 98.8720°W)
Time: 23:20:06
(UTC-05:00)

ISS - All Passes

Search period start: 19 October 2014 00:00
Search period end: 29 October 2014 00:00
Orbit: 413 x 416 km, 51.6° (Epoch: 19 October)

Date Brightness Start Highest point End Pass type
(mag) Time Alt. Az. Time Alt. Az. Time Alt. Az.
19 Oct - 14:34:04 10° SSW 14:37:15 45° SE 14:40:27 10° ENE daylight
19 Oct - 16:12:16 10° WNW 16:14:08 14° NW 16:16:00 10° N daylight
19 Oct - 22:43:45 10° NNW 22:46:57 42° NE 22:50:08 10° ESE night (unlit)
20 Oct - 00:22:14 10° WSW 00:23:19 11° SW 00:24:23 10° SW night (unlit)
20 Oct - 13:45:48 10° S 13:48:25 22° SE 13:51:03 10° ENE daylight
20 Oct - 15:22:16 10° W 15:25:01 24° NW 15:27:46 10° NNE daylight
20 Oct - 21:55:10 10° NNW 21:57:54 23° NE 22:00:37 10° E night (unlit)
20 Oct - 23:31:50 10° WNW 23:34:31 22° SW 23:37:10 10° S night (unlit)
21 Oct - 12:58:44 10° SE 12:59:36 11° SE 13:00:28 10° ESE daylight
21 Oct - 14:32:46 10° WSW 14:35:57 44° NW 14:39:09 10° NNE daylight
21 Oct - 21:06:57 10° N 21:08:45 14° NE 21:10:32 10° ENE visible
21 Oct - 22:42:24 10° NW 22:45:37 47° SW 22:48:49 10° SSE night (unlit)
22 Oct - 13:43:37 10° SW 13:46:56 85° SE 13:50:16 10° NE daylight
22 Oct - 21:53:19 10° NW 21:56:39 77° NE 21:59:57 10° SE night (unlit)
23 Oct - 12:54:51 10° SSW 12:57:57 38° SE 13:01:04 10° ENE daylight
23 Oct - 14:32:38 10° WNW 14:34:45 16° NW 14:36:52 10° N daylight
23 Oct - 21:04:27 10° NNW 21:07:34 36° NE 21:10:40 10° ESE visible
23 Oct - 22:42:19 10° W 22:43:58 13° SW 22:45:38 10° SSW night (unlit)
24 Oct - 12:06:37 10° S 12:09:00 19° SE 12:11:24 10° E daylight
24 Oct - 13:42:39 10° W 13:45:32 27° NW 13:48:25 10° NNE daylight
24 Oct - 20:15:49 10° NNW 20:18:23 20° NE 20:20:56 10° E visible
24 Oct - 21:52:12 10° WNW 21:55:02 26° SW 21:57:52 10° S visible
25 Oct - 12:53:07 10° WSW 12:56:22 52° NW 12:59:37 10° NE daylight
25 Oct - 19:27:38 10° N 19:29:05 12° NE 19:30:31 10° ENE visible
25 Oct - 21:02:45 10° NW 21:06:01 57° SW 21:09:16 10° SSE visible
26 Oct - 12:03:57 10° SW 12:07:15 71° SE 12:10:33 10° NE daylight
26 Oct - 13:43:23 10° NW 13:44:15 11° NNW 13:45:07 10° NNW daylight
26 Oct - 20:13:36 10° NW 20:16:54 64° NE 20:20:11 10° SE visible
27 Oct - 11:15:11 10° SSW 11:18:09 31° SE 11:21:09 10° ENE daylight
27 Oct - 12:52:32 10° W 12:54:53 18° NW 12:57:13 10° N daylight
27 Oct - 19:24:40 10° NNW 19:27:41 31° NE 19:30:41 10° ESE visible
27 Oct - 21:02:04 10° W 21:04:08 16° SW 21:06:13 10° SSW visible
28 Oct - 10:27:02 10° SSE 10:29:06 16° SE 10:31:10 10° E daylight
28 Oct - 12:02:34 10° WSW 12:05:33 31° NW 12:08:34 10° NNE daylight
28 Oct - 18:36:00 10° N 18:38:21 18° NE 18:40:42 10° E daylight
28 Oct - 20:12:05 10° WNW 20:15:04 31° SW 20:18:03 10° SSE visible
